Change the Weather History Date:

Monday, September 9, 2013

  Actual Average (LRTM) Record (LRTM)
Temperature  
Mean Temperature 62 °F -  
Max Temperature 78 °F 66 °F 125 °F (1998)
Min Temperature 45 °F 45 °F 35 °F (2000)
Degree Days  
Heating Degree Days 4    
Growing Degree Days 12 (Base 50)    
Moisture  
Dew Point 49 °F    
Average Humidity 65    
Maximum Humidity 100    
Minimum Humidity 23    
Precipitation  
Precipitation 0.01 in 0.05 in - ()
Sea Level Pressure  
Sea Level Pressure 30.12 in    
Wind  
Wind Speed 4 mph ()    
Max Wind Speed 12 mph    
Max Gust Speed -    
Visibility 8.4 miles    
Events Rain    
Averages and records for this station are not official NWS values.
T = Trace of Precipitation, MM = Missing Value Source: Averaged Metar Reports

Daily Weather History Graph

Daily Weather History Graph

Search for Another Location

Airport or City:

Trip Planner

Search our weather history database for the weather conditions in past years. The results will help you decide how hot, cold, wet, or windy it might be!

Date:

Astronomy

Sep. 09, 2013 Rise Set
Actual Time 6:55 AM EEST 7:49 PM EEST
Civil Twilight 6:24 AM EEST 8:19 PM EEST
Nautical Twilight 5:47 AM EEST 8:56 PM EEST
Astronomical Twilight 5:08 AM EEST 9:35 PM EEST
Moon 11:14 AM EEST (9/9) 9:32 PM EEST (9/9)
Length of Visible Light 13h 55m
Length of Day
12h 53m
Waxing Crescent, 16% of the Moon is Illuminated
Sep 9
Waxing Crescent
Sep 12
First Quarter
Sep 19
Full
Sep 27
Last Quarter
Oct 5
New

Hourly Weather History & Observations

Time (EEST) Temp. Dew Point Humidity Pressure Visibility Wind Dir Wind Speed Gust Speed Precip Events Conditions
12:00 AM 56 °F 50 °F 74% 30.22 in 6 mi SW 4.5 mph - -  
12:00 AM 57.2 °F 48.2 °F 72% 30.21 in - SW 4.6 mph - N/A   Clear
1:00 AM 54 °F 50 °F 80% 30.22 in 6 mi SW 4.5 mph - -  
1:00 AM 55.4 °F 48.2 °F 77% 30.21 in - WSW 4.6 mph - N/A   Clear
2:00 AM 51.8 °F 46.4 °F 82% 30.21 in - Calm Calm - N/A   Clear
3:00 AM 52 °F 49 °F 84% 30.22 in 6 mi SW 4.5 mph - -  
3:00 AM 50.0 °F 46.4 °F 87% 30.21 in - East 2.3 mph - N/A   Clear
4:00 AM 51 °F 48 °F 87% 30.22 in 6 mi SSW 4.5 mph - -  
4:00 AM 48.2 °F 46.4 °F 93% 30.21 in - Calm Calm - N/A   Clear
5:00 AM 50 °F 48 °F 92% 30.22 in 6 mi SSW 4.5 mph - -  
5:00 AM 48.2 °F 46.4 °F 93% 30.18 in - Calm Calm - N/A   Clear
5:30 AM 48.2 °F 46.4 °F 93% 30.18 in - Calm Calm - N/A   Clear
6:00 AM 47 °F 46 °F 95% 30.22 in 6 mi SW 2.2 mph - -  
6:00 AM 46.4 °F 44.6 °F 93% 30.18 in - Calm Calm - N/A   Clear
6:30 AM 44.6 °F 44.6 °F 100% 30.18 in - Calm Calm - N/A   Clear
7:00 AM 44.6 °F 44.6 °F 100% 30.18 in - Calm Calm - N/A   Clear
7:30 AM 46.4 °F 44.6 °F 93% 30.18 in - Calm Calm - N/A   Clear
8:00 AM 48.2 °F 46.4 °F 93% 30.18 in - Variable 2.3 mph - N/A   Clear
8:30 AM 50.0 °F 46.4 °F 87% 30.15 in - Variable 2.3 mph - N/A   Clear
9:00 AM 52 °F 49 °F 84% 30.17 in 12 mi South 2.2 mph - -   Clear
9:00 AM 53.6 °F 48.2 °F 82% 30.15 in - Calm Calm - N/A   Clear
9:30 AM 55.4 °F 50.0 °F 82% 30.15 in - Variable 2.3 mph - N/A   Clear
10:00 AM 58 °F 50 °F 66% 30.16 in 12 mi NE 2.2 mph - -   Clear
10:00 AM 60.8 °F 50.0 °F 68% 30.15 in - Variable 2.3 mph - N/A   Clear
10:30 AM 64.4 °F 50.0 °F 59% 30.15 in - East 6.9 mph - N/A   Clear
11:00 AM 62 °F 53 °F 63% 30.12 in 12 mi East 6.7 mph - -   Clear
11:00 AM 66.2 °F 50.0 °F 56% 30.15 in - East 9.2 mph - N/A   Clear
11:30 AM 68.0 °F 51.8 °F 56% 30.15 in - East 6.9 mph - N/A   Clear
12:00 PM 66 °F 53 °F 52% 30.12 in 12 mi NE 4.5 mph - -   Clear
12:00 PM 69.8 °F 51.8 °F 53% 30.12 in - East 9.2 mph - N/A   Clear
12:30 PM 71.6 °F 50.0 °F 46% 30.12 in - ESE 9.2 mph - N/A   Clear
1:00 PM 71 °F 53 °F 42% 30.09 in 12 mi ENE 6.7 mph - -   Clear
1:00 PM 73.4 °F 48.2 °F 41% 30.12 in - East 6.9 mph - N/A   Clear
1:30 PM 75.2 °F 48.2 °F 38% 30.09 in - SE 11.5 mph - N/A   Clear
2:00 PM 76 °F 49 °F 28% 30.05 in 12 mi East 4.5 mph - -   Clear
2:00 PM 75.2 °F 46.4 °F 36% 30.09 in - East 11.5 mph - N/A   Clear
2:30 PM 77.0 °F 44.6 °F 32% 30.09 in - ESE 9.2 mph - N/A   Clear
3:00 PM 76 °F 46 °F 24% 30.04 in 12 mi East 4.5 mph - -   Partly Cloudy
3:00 PM 75.2 °F 44.6 °F 34% 30.09 in - SE 6.9 mph - N/A   Clear
3:30 PM 75.2 °F 44.6 °F 34% 30.06 in - SE 6.9 mph - N/A   Clear
4:00 PM 75 °F 45 °F 23% 30.03 in 12 mi SSE 4.5 mph - -   Overcast
4:00 PM 75.2 °F 44.6 °F 34% 30.06 in - SE 6.9 mph - N/A   Clear
4:30 PM 75.2 °F 42.8 °F 31% 30.06 in - SE 4.6 mph - N/A   Clear
5:00 PM 75 °F 46 °F 25% 30.03 in 12 mi SE 2.2 mph - -   Overcast
5:00 PM 75.2 °F 42.8 °F 31% 30.06 in - ESE 4.6 mph - N/A   Clear
5:30 PM 75.2 °F 42.8 °F 31% 30.06 in - North 2.3 mph - N/A   Clear
6:00 PM 74 °F 48 °F 29% 30.02 in 12 mi Calm Calm - -   Overcast
6:00 PM 75.2 °F 48.2 °F 38% 30.06 in - Variable 2.3 mph - N/A   Clear
6:30 PM 75.2 °F 46.4 °F 36% 30.06 in - Calm Calm - N/A   Clear
7:00 PM 72 °F 48 °F 31% 30.03 in 12 mi Calm Calm - -   Overcast
7:00 PM 73.4 °F 50.0 °F 44% 30.06 in 6.2 mi WSW 2.3 mph - N/A   Partly Cloudy
7:30 PM 71.6 °F 55.4 °F 57% 30.06 in 6.2 mi Variable 2.3 mph - N/A Rain Light Rain Showers
8:00 PM 68 °F 56 °F 56% 30.04 in 12 mi WSW 4.5 mph - - Rain Light Rain Showers
8:00 PM 68.0 °F 55.4 °F 64% 30.06 in 6.2 mi SW 4.6 mph - N/A Rain Light Rain Showers
8:30 PM 66.2 °F 55.4 °F 68% 30.06 in 6.2 mi WSW 9.2 mph - N/A Rain Light Rain Showers
9:00 PM 62 °F 58 °F 81% 30.07 in 6 mi SW 6.7 mph - - Rain Light Rain Showers
9:00 PM 64.4 °F 57.2 °F 77% 30.06 in 6.2 mi WSW 11.5 mph - N/A Rain Light Rain
9:30 PM 62.6 °F 57.2 °F 82% 30.09 in 6.2 mi WSW 11.5 mph - N/A Rain Light Rain
10:00 PM 59 °F 59 °F 99% 30.10 in 6 mi SW 4.5 mph - - Rain Light Rain Showers
10:00 PM 62.6 °F 59.0 °F 88% 30.09 in 6.2 mi WSW 11.5 mph - N/A Rain Light Rain
10:30 PM 60.8 °F 55.4 °F 82% 30.09 in 6.2 mi West 9.2 mph - N/A Rain Light Rain
11:00 PM 58 °F 57 °F 97% 30.10 in 6 mi West 2.2 mph - - Rain Light Rain Showers
11:00 PM 60.8 °F 57.2 °F 88% 30.09 in 6.2 mi WSW 9.2 mph - N/A Rain Light Rain
11:30 PM 59.0 °F 55.4 °F 88% 30.12 in 6.2 mi West 9.2 mph - N/A Rain Light Rain